[[{"header":{"parameterUnit":"m.s-1","parameterCategory":1,"la1":30.2991,"la2":30.254,"lo1":-89.0895,"lo2":-89.0444,"dy":0.0017,"dx":0.0017,"nx":28,"ny":28,"refTime":"2024-12-23T09:00:00:Z","depth":0,"parameterNumber":2,"parameterNumberName":"U-component_of_WINDS"},"data":[0,0,0,0,0,0,0,0,0,0,0,0,0,0,0,0,0,0,0,0,0,0,0,0,0,0,0,0,0,0,0,0,0,0,0,0,0,0,0,0,0,0,0,0,0,0,0,0,0,0,0,0,0,0,0,0,0,0,-3.0754,-3.0754,0,-3.0762,-3.0762,-3.0762,-3.066,-3.0657,-3.0654,-3.0652,-3.0664,-3.0666,-3.0669,0,0,0,0,0,0,0,0,0,0,0,0,0,-3.0655,-3.0658,-3.0754,-3.0754,-3.0754,-3.0762,-3.0762,-3.0762,-3.066,-3.0657,-3.0654,-3.065,-3.0663,-3.0666,-3.067,0,0,0,0,0,0,0,0,0,0,0,0,0,-3.0685,-3.0659,-3.0754,-3.0704,-3.07,-3.0762,-3.0762,-3.0762,-3.0661,-3.0657,-3.0653,-3.0649,-3.0662,-3.0666,-3.067,-3.0781,0,0,-3.0684,-3.0685,0,0,0,0,0,0,0,0,-3.0683,-3.0688,-3.0711,-3.0708,-3.0703,-3.0706,-3.0732,-3.0769,-3.0662,-3.0676,-3.0652,-3.0647,-3.0681,-3.0684,-3.0695,-3.0782,-3.0782,-3.0684,-3.0687,-3.0688,-3.069,0,0,0,0,0,0,0,-3.0681,-3.0687,-3.0757,-3.0712,-3.0707,-3.0683,-3.0683,-3.0738,-3.0702,-3.0674,-3.0667,-3.0669,-3.0678,-3.0691,-3.0694,-3.0783,-3.0684,-3.0688,-3.069,-3.0692,-3.0965,-3.0969,0,0,0,0,0,0,-3.0685,-3.0686,-3.0757,-3.0757,-3.0682,-3.0688,-3.0688,-3.0709,-3.0701,-3.0696,-3.0673,-3.0664,-3.0685,-3.0689,-3.0694,-3.0826,-3.0688,-3.0693,-3.0695,-3.096,-3.0966,-3.0971,0,0,0,0,0,0,-3.0684,-3.0692,-3.0757,-3.072,-3.0726,-3.0694,-3.0719,-3.0711,-3.0724,-3.07,-3.0693,-3.0692,-3.0682,-3.0688,-3.0761,-3.0825,-3.0695,-3.0699,-3.0955,-3.0962,-3.0969,-3.1089,0,0,0,0,0,0,-3.0681,-3.0692,-3.0733,-3.0722,-3.0729,-3.0822,-3.0723,-3.0715,-3.0731,-3.072,-3.0716,-3.0711,-3.0679,-3.0755,-3.0765,-3.0829,-3.0702,-3.0949,-3.0958,-3.0966,-3.108,-3.11,-3.1117,0,0,0,0,0,-3.0678,-3.0767,-3.0736,-3.0745,-3.0779,-3.0826,-3.083,-3.079,-3.0737,-3.0778,-3.0764,-3.0712,-3.0816,-3.0763,-3.0774,-3.084,-3.0945,-3.0956,-3.0966,-3.1071,-3.1096,-3.1116,0,0,0,0,0,0,-3.0787,-3.0764,-3.0729,-3.0817,-3.0824,-3.0808,-3.0859,-3.0817,-3.084,-3.0829,-3.0779,-3.078,-3.0861,-3.0857,-3.0799,-3.0949,-3.0871,-3.0884,-3.0948,-3.0971,-3.0989,-3.0989,-3.0706,0,0,0,0,0,-3.0822,-3.0861,-3.0839,-3.0919,-3.0924,-3.0892,-3.0911,-3.0879,-3.0885,-3.0888,-3.0878,-3.0887,-3.0922,-3.0946,-3.0977,-3.1078,-3.1078,-3.1129,-3.1148,-3.1163,-3.1175,-3.1232,-3.1255,-3.1005,-3.1005,-3.1005,0,0,-3.0893,-3.0885,-3.0913,-3.094,-3.0942,-3.0986,-3.0895,-3.0944,-3.0976,-3.0896,-3.0964,-3.0958,-3.0965,-3.1053,-3.1092,-3.1053,-3.1244,-3.1176,-3.1189,-3.1193,-3.1245,-3.1269,-3.129,-3.1012,-3.1011,-3.101,0,0,-3.1045,-3.1043,-3.111,-3.1114,-3.1117,-3.1096,-3.1112,-3.1103,-3.1096,-3.1164,-3.1105,-3.1144,-3.1204,-3.1212,-3.1224,-3.1383,-3.1337,-3.1394,-3.1492,-3.1547,-3.1567,-3.1584,-3.1643,-3.1665,-3.1406,-3.1407,-3.1407,0,-3.1134,-3.1195,-3.115,-3.1204,-3.1219,-3.1147,-3.1216,-3.1223,-3.1237,-3.125,-3.1206,-3.1282,-3.1281,-3.1372,-3.1411,-3.1422,-3.1442,-3.1395,-3.1568,-3.1585,-3.16,-3.1656,-3.1678,-3.1414,-3.1413,-3.1412,-3.1412,0,-3.1305,-3.1349,-3.1403,-3.1419,-3.144,-3.1501,-3.1467,-3.1494,-3.1461,-3.1445,-3.1517,-3.1514,-3.1544,-3.1563,-3.1532,-3.1651,-3.1626,-3.1576,-3.1497,-3.1632,-3.1683,-3.1704,-3.1424,-3.1421,-3.1419,-3.1417,0,0,-3.1526,-3.1517,-3.1538,-3.1545,-3.1545,-3.1579,-3.1638,-3.1667,-3.1692,-3.1705,-3.1755,-3.1809,-3.1763,-3.1777,-3.1746,-3.1795,-3.1924,-3.1738,-3.1738,-3.1775,-3.2058,-3.2097,-3.2123,-3.1893,-3.1897,-3.19,-3.2058,0,-3.1676,-3.1775,-3.1737,-3.184,-3.1882,-3.1816,-3.1868,-3.1875,-3.1862,-3.1897,-3.1883,-3.1923,-3.1858,-3.1866,-3.1911,-3.1899,-3.1981,-3.1887,-3.1942,-3.1944,-3.1944,-3.2149,-3.219,-3.2339,-3.2078,-3.2081,-3.2084,0,-3.1864,-3.1884,-3.1992,-3.1987,-3.2003,-3.205,-3.2075,-3.2108,-3.2116,-3.2103,-3.212,-3.208,-3.214,-3.2061,-3.2145,-3.2082,-3.2103,-3.2101,-3.2105,-3.211,-3.2023,-3.2161,-3.2385,-3.2409,-3.2114,-3.2112,-3.211,0,-3.2017,-3.2071,-3.2143,-3.2151,-3.2147,-3.2182,-3.2182,-3.2185,-3.2206,-3.2228,-3.2242,-3.2271,-3.2288,-3.2312,-3.2282,-3.2227,-3.2371,-3.2289,-3.2365,-3.2366,-3.2399,-3.2397,-3.2632,-3.241,-3.2409,-3.2409,-3.2408,0,-3.2189,-3.2258,-3.2212,-3.2257,-3.2333,-3.2289,-3.2367,-3.2359,-3.2364,-3.2407,-3.2352,-3.2394,-3.2351,-3.239,-3.2367,-3.2441,-3.2449,-3.2442,-3.2435,-3.2448,-3.2449,-3.2461,-3.2451,-3.2415,-3.2414,-3.2412,-3.2411,0,-3.2373,-3.2345,-3.2419,-3.2409,-3.2409,-3.2466,-3.2458,-3.25,-3.2483,-3.254,-3.255,-3.2525,-3.2569,-3.2541,-3.2585,-3.2569,-3.2667,-3.2645,-3.2665,-3.266,-3.2737,-3.2731,-3.2989,-3.3021,-3.2777,-3.278,-3.2781,0,-3.2485,-3.2536,-3.2533,-3.2558,-3.2561,-3.2602,-3.2623,-3.2583,-3.2607,-3.2621,-3.2663,-3.2701,-3.273,-3.2803,-3.279,-3.2824,-3.2804,-3.2892,-3.2809,-3.2821,-3.2808,-3.2806,-3.2812,-3.2909,-3.2912,-3.2915,-3.2916,0,-3.2688,-3.2672,-3.2704,-3.2732,-3.2759,-3.2779,-3.2795,-3.2819,-3.2779,-3.281,-3.2853,-3.2876,-3.2921,-3.2961,-3.299,-3.2992,-3.295,-3.2943,-3.2962,-3.2976,-3.2986,-3.2984,-3.2713,-3.2937,-3.2935,-3.2934,-3.2932,-3.2932,-3.2841,-3.2885,-3.2889,-3.2927,-3.2935,-3.2952,-3.2992,-3.2981,-3.3016,-3.3049,-3.3024,-3.3077,-3.3086,-3.312,-3.3128,-3.317,-3.3135,-3.3163,-3.317,-3.3178,-3.319,-3.2979,-3.3175,-3.3175,-3.3174,-3.3174,-3.3173,0,-3.3043,-3.3043,-3.3078,-3.3103,-3.3134,-3.3089,-3.3105,-3.3134,-3.3181,-3.3192,-3.3222,-3.3274,-3.3314,-3.3304,-3.334,-3.3376,-3.3358,-3.3387,-3.3385,-3.3387,-3.3218,-3.3199,-3.3402,-3.3402,-3.3402,-3.3402,-3.3402,-3.3402,-3.3152,-3.3224,-3.3209,-3.3286,-3.3286,-3.3337,-3.335,-3.3366,-3.3376,-3.3436,-3.3468,-3.3461,-3.3466,-3.3502,-3.3537,-3.3533,-3.355,-3.3588,-3.3578,-3.3421,-3.3398,-3.3377,-3.3358,-3.3591,-3.3592,-3.3742,-3.3744,-3.3745]},{"header":{"parameterUnit":"m.s-1","parameterCategory":1,"la1":30.2991,"la2":30.254,"lo1":-89.0895,"lo2":-89.0444,"dy":0.0017,"dx":0.0017,"nx":28,"ny":28,"refTime":"2024-12-23T09:00:00:Z","depth":0,"parameterNumber":3,"parameterNumberName":"V-component_of_WINDS"},"data":[0,0,0,0,0,0,0,0,0,0,0,0,0,0,0,0,0,0,0,0,0,0,0,0,0,0,0,0,0,0,0,0,0,0,0,0,0,0,0,0,0,0,0,0,0,0,0,0,0,0,0,0,0,0,0,0,0,0,0.9027,0.9027,0,0.9012,0.9012,0.9012,0.9032,0.9032,0.9033,0.9034,0.9013,0.9012,0.9011,0,0,0,0,0,0,0,0,0,0,0,0,0,0.907,0.9069,0.9027,0.9027,0.9027,0.9012,0.9012,0.9012,0.9031,0.9032,0.9033,0.9034,0.9014,0.9012,0.9011,0,0,0,0,0,0,0,0,0,0,0,0,0,0.9053,0.9069,0.9027,0.9035,0.9036,0.9012,0.9012,0.9012,0.9031,0.9032,0.9033,0.9034,0.9014,0.9012,0.901,0.8977,0,0,0.9005,0.9004,0,0,0,0,0,0,0,0,0.9054,0.9051,0.9034,0.9035,0.9035,0.9025,0.9019,0.9,0.9031,0.9033,0.9034,0.9035,0.9016,0.9014,0.9008,0.8976,0.8975,0.9005,0.9003,0.9003,0.9002,0,0,0,0,0,0,0,0.9055,0.9052,0.9021,0.9034,0.9035,0.9038,0.9037,0.9016,0.9018,0.9033,0.9034,0.9032,0.9016,0.901,0.9008,0.8975,0.9005,0.9003,0.9002,0.9001,0.8914,0.8913,0,0,0,0,0,0,0.9056,0.9053,0.9022,0.9021,0.9048,0.9037,0.9035,0.9027,0.9018,0.9018,0.9031,0.9033,0.9013,0.901,0.9007,0.8967,0.9003,0.9001,0.9,0.8915,0.8913,0.8912,0,0,0,0,0,0,0.9057,0.9053,0.9022,0.9037,0.9034,0.9035,0.9025,0.9026,0.902,0.9018,0.9018,0.9025,0.9014,0.901,0.8985,0.8967,0.9,0.8998,0.8916,0.8914,0.8913,0.8886,0,0,0,0,0,0,0.9058,0.9053,0.9041,0.9037,0.9033,0.9001,0.9024,0.9025,0.9017,0.902,0.9011,0.9011,0.9014,0.8987,0.8983,0.8965,0.8997,0.8918,0.8915,0.8913,0.8889,0.8884,0.888,0,0,0,0,0,0.9059,0.9033,0.904,0.9036,0.9018,0.9,0.8997,0.9002,0.9016,0.9003,0.9002,0.9011,0.897,0.8985,0.898,0.8961,0.8919,0.8916,0.8913,0.8891,0.8885,0.888,0,0,0,0,0,0,0.9033,0.9032,0.904,0.9012,0.9006,0.9003,0.8987,0.8996,0.8984,0.8987,0.8993,0.8991,0.8963,0.896,0.8976,0.8928,0.8946,0.8943,0.8931,0.8925,0.8921,0.8921,0.8995,0,0,0,0,0,0.9024,0.9011,0.9011,0.8986,0.8983,0.8986,0.8978,0.8983,0.8976,0.8972,0.8969,0.8961,0.8946,0.8936,0.8922,0.8889,0.8887,0.8874,0.8869,0.8866,0.8861,0.8843,0.8837,0.8903,0.8903,0.8903,0,0,0.9005,0.9004,0.8994,0.8981,0.8976,0.8961,0.8983,0.8966,0.8954,0.8969,0.8945,0.8943,0.8934,0.8904,0.8891,0.89,0.8843,0.8862,0.8859,0.8857,0.884,0.8833,0.8828,0.8901,0.8902,0.8902,0,0,0.8963,0.8961,0.894,0.8936,0.893,0.8932,0.8927,0.8923,0.8922,0.8899,0.891,0.8896,0.887,0.8863,0.8856,0.8813,0.8821,0.8809,0.8784,0.8766,0.8761,0.8756,0.8739,0.8733,0.8805,0.8805,0.8805,0,0.8939,0.8918,0.8927,0.891,0.8903,0.8919,0.8897,0.8892,0.8881,0.8875,0.8887,0.8855,0.885,0.8819,0.8809,0.8804,0.8797,0.8808,0.8761,0.8757,0.8752,0.8736,0.873,0.8803,0.8804,0.8804,0.8804,0,0.8889,0.8874,0.8858,0.8849,0.884,0.882,0.8826,0.8816,0.8823,0.8824,0.8799,0.8794,0.878,0.8773,0.8778,0.8743,0.8749,0.8761,0.8779,0.8744,0.8729,0.8723,0.8801,0.8802,0.8802,0.8803,0,0,0.8826,0.8825,0.8818,0.8815,0.881,0.8798,0.8779,0.8767,0.8758,0.875,0.8733,0.8712,0.8723,0.8716,0.8721,0.8705,0.867,0.8719,0.8719,0.8708,0.8629,0.8619,0.8612,0.8677,0.8675,0.8675,0.863,0,0.8783,0.8751,0.876,0.8728,0.8714,0.873,0.8713,0.8708,0.8709,0.8696,0.8696,0.8681,0.8697,0.8693,0.8679,0.8677,0.8654,0.8681,0.8659,0.8658,0.8658,0.8604,0.8593,0.8551,0.8624,0.8623,0.8622,0,0.8727,0.872,0.8686,0.8685,0.8679,0.8664,0.8654,0.8642,0.8636,0.8638,0.863,0.8639,0.8618,0.8639,0.8611,0.8629,0.8621,0.8619,0.8618,0.8614,0.8636,0.8597,0.8538,0.8531,0.8613,0.8614,0.8615,0,0.8683,0.8665,0.8643,0.8639,0.8637,0.8626,0.8624,0.862,0.8612,0.8603,0.8598,0.8586,0.8578,0.8568,0.8573,0.8588,0.8543,0.8564,0.8542,0.8542,0.853,0.853,0.8466,0.8528,0.8528,0.8528,0.8528,0,0.8632,0.8611,0.8623,0.8609,0.8585,0.8596,0.8572,0.8572,0.8568,0.8554,0.8567,0.8553,0.856,0.8546,0.855,0.8525,0.8522,0.8522,0.8522,0.8519,0.8519,0.8512,0.8514,0.8527,0.8527,0.8527,0.8528,0,0.8578,0.8586,0.8562,0.8563,0.8563,0.8545,0.8546,0.8532,0.8535,0.8516,0.8513,0.8516,0.8501,0.8505,0.8487,0.849,0.8458,0.8464,0.846,0.8461,0.8438,0.8439,0.8365,0.8356,0.8426,0.8425,0.8424,0,0.8544,0.8528,0.8528,0.8521,0.8519,0.8506,0.8498,0.8508,0.85,0.8493,0.848,0.8466,0.8455,0.8429,0.8429,0.8416,0.842,0.8395,0.8418,0.8415,0.8417,0.8417,0.8415,0.839,0.8389,0.8388,0.8388,0,0.8482,0.8487,0.8477,0.8469,0.846,0.8453,0.8447,0.844,0.845,0.8439,0.8425,0.8416,0.84,0.8385,0.8373,0.837,0.8379,0.8381,0.8375,0.837,0.8369,0.8368,0.8446,0.8382,0.8383,0.8383,0.8383,0.8384,0.8436,0.8423,0.8421,0.8409,0.8407,0.8401,0.8389,0.8391,0.838,0.8368,0.8375,0.8357,0.8352,0.8338,0.8333,0.8319,0.8328,0.8319,0.8317,0.8314,0.831,0.8373,0.8317,0.8317,0.8317,0.8317,0.8317,0,0.8373,0.8374,0.8363,0.8356,0.8346,0.836,0.8354,0.8345,0.833,0.8326,0.8316,0.8298,0.8285,0.8285,0.8272,0.826,0.8264,0.8256,0.8256,0.8254,0.8303,0.8309,0.8253,0.8253,0.8253,0.8253,0.8253,0.8253,0.834,0.8318,0.8323,0.83,0.83,0.8284,0.828,0.8275,0.8271,0.8252,0.8242,0.8243,0.824,0.8227,0.8214,0.8215,0.8208,0.8198,0.82,0.8245,0.8251,0.8257,0.8263,0.8197,0.8197,0.8152,0.8151,0.8151]}]]